Nuiqsut, AK

6:13 PM AKDT on September 25, 2017 (GMT -0800)
Nuiqsut

Weather History for PAQT - February, 2013

Change the Weather History Date:

Tuesday, February 19, 2013

  Actual Average (PAKU) Record (PAKU)
Temperature  
Mean Temperature -40 °F -  
Max Temperature -33 °F -12 °F 27 °F (1993)
Min Temperature -47 °F -20 °F -49 °F (2014)
Degree Days  
Heating Degree Days 105    
Moisture  
Dew Point -    
Average Humidity    
Maximum Humidity    
Minimum Humidity    
Precipitation  
Precipitation 0.00 in - - ()
Sea Level Pressure  
Sea Level Pressure 30.51 in    
Wind  
Wind Speed 3 mph (North)    
Max Wind Speed 12 mph    
Max Gust Speed -    
Visibility 4 miles    
Events Fog    
Averages and records for this station are not official NWS values.
T = Trace of Precipitation, MM = Missing Value Source: NWS Daily Summary

Daily Weather History Graph

Daily Weather History Graph

Search for Another Location

Airport or City:

Trip Planner

Search our weather history database for the weather conditions in past years. The results will help you decide how hot, cold, wet, or windy it might be!

Date:

Astronomy

Feb. 19, 2013 Rise Set
Actual Time 9:17 AM AKST 5:20 PM AKST
Civil Twilight 8:10 AM AKST 6:26 PM AKST
Nautical Twilight 6:58 AM AKST 7:38 PM AKST
Astronomical Twilight 5:46 AM AKST 8:51 PM AKST
Moon No Moon Rise No Moon Set
Length of Visible Light 10h 16m
Length of Day
8h 02m
Waxing Gibbous, 69% of the Moon is Illuminated
Feb 19
Waxing Gibbous
Feb 25
Full
Mar 4
Last Quarter
Mar 11
New
Mar 19
First Quarter

Hourly Weather History & Observations

Time (AKST) Temp. Windchill Dew Point Humidity Pressure Visibility Wind Dir Wind Speed Gust Speed Precip Events Conditions
12:04 AM -45.4 °F - - N/A% 30.64 in 10.0 mi Calm Calm - N/A   Partly Cloudy
12:53 AM -45.0 °F - - N/A% 30.66 in 10.0 mi Calm Calm - N/A   Clear
1:43 AM -45.4 °F - - N/A% 30.64 in 6.0 mi Calm Calm - N/A   Haze
1:49 AM -43.6 °F - - N/A% 30.63 in 4.0 mi Calm Calm - N/A   Haze
1:53 AM -44.0 °F - - N/A% 30.64 in 2.5 mi Calm Calm - N/A   Mostly Cloudy
1:57 AM -43.6 °F - - N/A% 30.63 in 0.8 mi Calm Calm - N/A   Mostly Cloudy
3:20 AM -45.4 °F - - N/A% 30.63 in 1.0 mi Calm Calm - N/A   Clear
3:53 AM -45.0 °F - - N/A% 30.63 in 4.0 mi Calm Calm - N/A   Haze
4:53 AM -45.9 °F - - N/A% 30.62 in 10.0 mi Calm Calm - N/A   Clear
5:53 AM -45.9 °F - - N/A% 30.60 in 10.0 mi Calm Calm - N/A   Clear
6:53 AM -45.0 °F -59.3 °F - N/A% 30.58 in 10.0 mi South 3.5 mph - N/A   Clear
7:53 AM -45.9 °F -68.3 °F - N/A% 30.59 in 10.0 mi WSW 6.9 mph - N/A   Clear
8:03 AM -47.2 °F -67.6 °F - N/A% 30.58 in 10.0 mi West 5.8 mph - N/A   Scattered Clouds
8:24 AM -45.4 °F -65.4 °F - N/A% 30.57 in 3.0 mi West 5.8 mph - N/A   Mostly Cloudy
8:28 AM -45.4 °F -65.4 °F - N/A% 30.57 in 1.2 mi West 5.8 mph - N/A   Mostly Cloudy
8:53 AM -45.9 °F - - N/A% 30.57 in - North - - N/A   Scattered Clouds
9:01 AM -45.4 °F - - N/A% 30.56 in 1.0 mi North - - N/A   Mist
9:05 AM -45.4 °F - - N/A% 30.56 in 0.8 mi North - - N/A   Mist
9:41 AM -43.6 °F - - N/A% 30.54 in 0.2 mi North - - N/A Fog Light Freezing Fog
9:53 AM -44.0 °F - - N/A% 30.54 in 0.2 mi North - - N/A Fog Light Freezing Fog
10:37 AM -43.6 °F - - N/A% 30.52 in 0.2 mi North - - N/A Fog Light Freezing Fog
10:50 AM -43.6 °F - - N/A% 30.52 in 1.0 mi North - - N/A   Mist
10:51 AM -44.0 °F - - N/A% 30.53 in 1.0 mi North - - N/A   Mist
11:01 AM -43.6 °F - - N/A% 30.52 in 1.5 mi North - - N/A   Partly Cloudy
11:10 AM -43.6 °F - - N/A% 30.52 in 3.0 mi North - - N/A   Partly Cloudy
11:25 AM -41.8 °F - - N/A% 30.50 in 1.8 mi North - - N/A   Clear
11:43 AM -43.6 °F - - N/A% 30.51 in 1.5 mi North - - N/A   Partly Cloudy
11:53 AM -44.0 °F - - N/A% 30.51 in 1.5 mi North - - N/A   Clear
12:20 PM -41.8 °F - - N/A% 30.50 in 0.8 mi North - - N/A   Clear
12:33 PM -41.8 °F - - N/A% 30.49 in 1.0 mi North - - N/A   Clear
12:45 PM -41.8 °F - - N/A% 30.49 in 1.0 mi North - - N/A   Mist
12:53 PM -42.0 °F - - N/A% 30.51 in 1.0 mi North - - N/A   Mist
1:02 PM -41.8 °F - - N/A% 30.49 in 1.5 mi North - - N/A   Partly Cloudy
1:16 PM -41.8 °F - - N/A% 30.50 in 2.5 mi North - - N/A   Clear
1:23 PM -43.6 °F - - N/A% 30.50 in 4.0 mi North - - N/A   Haze
1:28 PM -41.8 °F - - N/A% 30.49 in 1.8 mi North - - N/A   Scattered Clouds
1:32 PM -43.6 °F - - N/A% 30.49 in 0.8 mi North - - N/A   Mist
1:53 PM -44.0 °F - - N/A% 30.50 in 0.5 mi Calm Calm - N/A Fog Light Freezing Fog
3:22 PM -34.6 °F -52.6 °F - N/A% 30.47 in 1.2 mi North 5.8 mph - N/A   Clear
3:32 PM -34.6 °F -52.6 °F - N/A% 30.47 in 2.0 mi North 5.8 mph - N/A   Partly Cloudy
3:45 PM -34.6 °F -54.6 °F - N/A% 30.46 in 4.0 mi North 6.9 mph - N/A   Haze
3:53 PM -34.1 °F -55.7 °F - N/A% 30.46 in 4.0 mi North 8.1 mph - N/A   Haze
4:53 PM -34.1 °F -54.0 °F - N/A% 30.45 in 6.0 mi NE 6.9 mph - N/A   Haze
5:53 PM -33.0 °F -50.7 °F - N/A% 30.44 in 10.0 mi NE 5.8 mph - N/A   Clear
6:53 PM -34.1 °F -52.0 °F - N/A% 30.43 in 4.0 mi North 5.8 mph - N/A   Haze
7:13 PM -36.4 °F -56.8 °F - N/A% 30.41 in 1.5 mi NNE 6.9 mph - N/A   Clear
7:27 PM -34.6 °F -56.3 °F - N/A% 30.41 in 3.0 mi NNE 8.1 mph - N/A   Clear
7:53 PM -35.0 °F -56.8 °F - N/A% 30.41 in 3.0 mi NNE 8.1 mph - N/A   Clear
8:01 PM -36.4 °F -60.1 °F - N/A% 30.40 in 2.0 mi NNE 9.2 mph - N/A   Clear
8:16 PM -36.4 °F -62.7 °F - N/A% 30.39 in 6.0 mi NNE 11.5 mph - N/A   Haze
8:53 PM -34.1 °F -58.5 °F - N/A% 30.39 in 7.0 mi NE 10.4 mph - N/A   Clear
9:53 PM -35.0 °F -60.9 °F - N/A% 30.39 in 7.0 mi NE 11.5 mph - N/A   Clear
10:53 PM -36.0 °F - - N/A% 30.36 in 4.0 mi North - - N/A   Haze
11:53 PM -36.0 °F - - N/A% 30.35 in 4.0 mi North - - N/A   Haze